Hourly Data Report for January 17, 2022

LA RONGE RCS
SASKATCHEWAN
Current Station Operator: ECCC - MSC

55°08'47.020" N
105°16'13.030" W
378.60 m
4064149
71586
XOX

Download Data

Hourly Data (January 2022)
Hourly Data Report for January 17, 2022
TIME
LST
Temp Definition
°C
Dew Point Definition
°C
Rel Hum Definition
%
Precip. Amount Definition
mm

Wind Dir Definition
10's deg

Wind Spd Definition
km/h
Visibility Definition
km
Stn Press Definition
kPa
Hmdx Definition


Wind Chill Definition


Weather Definition


00:00 -19.6 -22.4 78 0.0 6 14   96.82   -28 LegendNANA
01:00 -19.7 -22.6 78 0.0 5 13   96.86   -28 LegendNANA
02:00 -19.5 -22.3 78 0.0 7 9   96.80   -26 LegendNANA
03:00 -19.7 -22.6 78 0.0 8 12   96.76   -28 LegendNANA
04:00 -20.5 -23.6 76 0.0 6 10   96.81   -28 LegendNANA
05:00 -20.5 -23.6 77 0.0 7 12   96.75   -29 LegendNANA
06:00 -20.6 -23.7 76 0.0 8 12   96.72   -29 LegendNANA
07:00 -20.8 -23.9 76 0.0 8 12   96.71   -29 LegendNANA
08:00 -20.9 -24.0 76 0.0 9 14   96.67   -30 LegendNANA
09:00 -20.9 -24.0 76 0.0 8 11   96.64   -29 LegendNANA
10:00 -21.0 -24.2 76 0.1 8 15   96.64   -30 LegendNANA
11:00 -20.7 -24.0 75 0.1 9 13   96.59   -29 LegendNANA
12:00 -20.9 -24.3 74 0.1 7 16   96.54   -31 LegendNANA
13:00 -20.8 -24.2 74 0.2 7 15   96.44   -30 LegendNANA
14:00 -20.9 -24.3 74 0.1 7 19   96.34   -31 LegendNANA
15:00 -20.7 -23.9 75 0.3 8 19   96.27   -31 LegendNANA
16:00 -20.5 -23.6 76 0.3 8 17   96.23   -30 LegendNANA
17:00 -20.4 -23.3 78 0.3 8 20   96.22   -31 LegendNANA
18:00 -20.7 -23.5 78 0.4 7 18   96.18   -31 LegendNANA
19:00 -21.6 -24.4 78 0.2 6 21   96.22   -33 LegendNANA
20:00 -21.9 -24.9 77 0.2 7 20   96.22   -33 LegendNANA
21:00 -22.0 -24.9 77 0.1 7 18   96.28   -32 LegendNANA
22:00 -21.9 -24.8 77 0.3 6 17   96.35   -32 LegendNANA
23:00 -21.7 -24.5 78 0.3 5 15   96.41   -31 LegendNANA

Notes on Data Quality.

Legend

  • E = Estimated
  • M = Missing
  • NA = Not Available*
  • [empty] = Indicates an unobserved value
Date modified: